De Queen, AR

2:27 PM CST on January 18, 2017 (GMT -0600)
Helms Sevier County

Weather History for KDEQ - February, 2013

Change the Weather History Date:

Monday, February 18, 2013

  Actual Average Record
Temperature  
Mean Temperature 61 °F 46 °F  
Max Temperature 74 °F 59 °F 80 °F (1986)
Min Temperature 48 °F 33 °F 15 °F (1980)
Degree Days  
Heating Degree Days 4 19  
Month to date heating degree days 323 381  
Since 1 July heating degree days 2087 2317  
Cooling Degree Days 0 0  
Month to date cooling degree days 0 0  
Year to date cooling degree days 4 1  
Growing Degree Days 11 (Base 50)    
Moisture  
Dew Point 44 °F    
Average Humidity 60    
Maximum Humidity 77    
Minimum Humidity 43    
Precipitation  
Precipitation T in 0.14 in 2.47 in (1938)
Month to date precipitation 0.84 2.63  
Year to date precipitation 2.84 5.95  
Snow  
Snow 0.00 in - - ()
Month to date snowfall 0.0  
Since 1 July snowfall 4.5  
Snow Depth 0.00 in    
Sea Level Pressure  
Sea Level Pressure 29.86 in    
Wind  
Wind Speed 11 mph (SSW)    
Max Wind Speed 32 mph    
Max Gust Speed 44 mph    
Visibility 10 miles    
Events Rain    
T = Trace of Precipitation, MM = Missing Value Source: NWS Daily Summary

Daily Weather History Graph

Daily Weather History Graph

Search for Another Location

Airport or City:

Trip Planner

Search our weather history database for the weather conditions in past years. The results will help you decide how hot, cold, wet, or windy it might be!

Date:

Astronomy

Feb. 18, 2013 Rise Set
Actual Time 6:58 AM CST 6:04 PM CST
Civil Twilight 6:33 AM CST 6:30 PM CST
Nautical Twilight 6:04 AM CST 6:59 PM CST
Astronomical Twilight 5:35 AM CST 7:28 PM CST
Moon 11:58 AM CST 1:31 AM CST
Length of Visible Light 11h 56m
Length of Day
11h 05m
First Quarter, 58% of the Moon is Illuminated
Feb 18
First Quarter
Feb 25
Full
Mar 4
Last Quarter
Mar 11
New
Mar 19
First Quarter

Hourly Weather History & Observations

Time (CST) Temp. Dew Point Humidity Pressure Visibility Wind Dir Wind Speed Gust Speed Precip Events Conditions
12:53 AM 55.0 °F 39.0 °F 55% 29.97 in 10.0 mi SSE 5.8 mph - N/A   Overcast
1:53 AM 55.0 °F 41.0 °F 59% 29.95 in 10.0 mi SSE 5.8 mph - N/A   Overcast
2:53 AM 55.0 °F 42.1 °F 62% 29.94 in 10.0 mi South 9.2 mph - N/A   Overcast
3:53 AM 54.0 °F 44.1 °F 69% 29.92 in 10.0 mi South 6.9 mph - N/A   Overcast
4:53 AM 54.0 °F 44.1 °F 69% 29.90 in 10.0 mi South 6.9 mph 18.4 mph N/A   Overcast
5:53 AM 55.0 °F 45.0 °F 69% 29.88 in 10.0 mi South 9.2 mph - N/A   Overcast
6:44 AM 55.0 °F 46.0 °F 72% 29.89 in 10.0 mi SSE 6.9 mph - N/A   Overcast
6:53 AM 55.0 °F 46.0 °F 72% 29.88 in 10.0 mi SSE 9.2 mph - N/A   Overcast
7:53 AM 55.0 °F 46.9 °F 74% 29.87 in 10.0 mi South 11.5 mph 18.4 mph N/A   Overcast
8:53 AM 55.0 °F 46.9 °F 74% 29.86 in 10.0 mi SSE 9.2 mph - N/A   Overcast
9:53 AM 55.9 °F 48.0 °F 75% 29.85 in 10.0 mi South 8.1 mph - N/A   Overcast
10:53 AM 59.0 °F 50.0 °F 72% 29.82 in 10.0 mi South 6.9 mph - N/A   Overcast
11:53 AM 61.0 °F 53.1 °F 75% 29.80 in 10.0 mi South 9.2 mph 18.4 mph 0.00 in Rain Light Rain
12:53 PM 64.0 °F 54.0 °F 70% 29.75 in 10.0 mi SSW 10.4 mph - 0.00 in   Overcast
1:30 PM 66.0 °F 55.0 °F 68% 29.72 in 9.0 mi SSW 13.8 mph 26.5 mph 0.00 in Rain Light Rain
1:53 PM 66.9 °F 55.9 °F 68% 29.69 in 10.0 mi SSW 17.3 mph 26.5 mph 0.00 in Rain Light Rain
2:53 PM 72.0 °F 53.1 °F 51% 29.64 in 10.0 mi SW 23.0 mph 32.2 mph 0.00 in   Scattered Clouds
3:53 PM 68.0 °F 50.0 °F 52% 29.67 in 10.0 mi West 18.4 mph 34.5 mph 0.00 in Rain Light Rain
4:53 PM 70.0 °F 39.9 °F 33% 29.69 in 10.0 mi West 20.7 mph 41.4 mph 0.00 in   Clear
5:53 PM 63.0 °F 39.9 °F 43% 29.77 in 10.0 mi NW 11.5 mph 26.5 mph N/A   Clear
6:53 PM 57.9 °F 36.0 °F 44% 29.85 in 10.0 mi WNW 15.0 mph 20.7 mph N/A   Clear
7:53 PM 55.0 °F 35.1 °F 47% 29.91 in 10.0 mi NNW 8.1 mph - N/A   Clear
8:53 PM 54.0 °F 34.0 °F 47% 29.96 in 10.0 mi NW 8.1 mph 20.7 mph N/A   Clear
9:53 PM 52.0 °F 33.1 °F 49% 30.00 in 10.0 mi NW 9.2 mph - N/A   Clear
10:53 PM 50.0 °F 32.0 °F 50% 30.04 in 10.0 mi NW 6.9 mph - N/A   Clear
11:53 PM 48.9 °F 32.0 °F 52% 30.07 in 10.0 mi NW 8.1 mph - N/A   Clear